| time (UTC) | temp C | wind direction | speed KPH | gust KPH | rain 1hr cm | rain 24hr cm | rain mn cm | humidity % | barometer mb |
| 20260906113503 | 34 | 168 | 4.8 | 16.1 | 0.00 | 0.00 | 0.00 | 31 | 1022.4 |
| 20260906113003 | 33 | 46 | 3.2 | 16.1 | 0.00 | 0.00 | 0.00 | 32 | 1022.4 |
| 20260906112503 | 33 | 183 | 3.2 | 9.7 | 0.00 | 0.00 | 0.00 | 33 | 1022.4 |
| 20260906112003 | 33 | 193 | 4.8 | 17.7 | 0.00 | 0.00 | 0.00 | 32 | 1022.4 |
| 20260906111503 | 33 | 179 | 3.2 | 17.7 | 0.00 | 0.00 | 0.00 | 32 | 1022.6 |
| 20260906111003 | 33 | 159 | 3.2 | 8.0 | 0.00 | 0.00 | 0.00 | 32 | 1022.6 |
| 20260906110503 | 33 | 152 | 4.8 | 11.3 | 0.00 | 0.00 | 0.00 | 33 | 1022.6 |
| 20260906110003 | 33 | 147 | 3.2 | 11.3 | 0.00 | 0.00 | 0.00 | 33 | 1022.6 |
| 20260906105503 | 33 | 220 | 1.6 | 8.0 | 0.00 | 0.00 | 0.00 | 33 | 1022.6 |
| 20260906105003 | 33 | 237 | 4.8 | 11.3 | 0.00 | 0.00 | 0.00 | 34 | 1022.6 |
| 20260906104503 | 33 | 198 | 4.8 | 11.3 | 0.00 | 0.00 | 0.00 | 34 | 1022.7 |
| 20260906104003 | 33 | 157 | 3.2 | 11.3 | 0.00 | 0.00 | 0.00 | 34 | 1022.7 |
| 20260906103503 | 33 | 158 | 1.6 | 9.7 | 0.00 | 0.00 | 0.00 | 34 | 1022.7 |
| 20260906103003 | 33 | 242 | 0.0 | 6.4 | 0.00 | 0.00 | 0.00 | 35 | 1022.8 |
| 20260906102503 | 32 | 242 | 0.0 | 6.4 | 0.00 | 0.00 | 0.00 | 35 | 1022.8 |
| 20260906102003 | 33 | 0 | 0.0 | 0.0 | 0.00 | 0.00 | 0.00 | 34 | 1023.0 |
| 20260906101503 | 32 | 0 | 0.0 | 0.0 | 0.00 | 0.00 | 0.00 | 35 | 1023.0 |
| 20260906101003 | 32 | 160 | 0.0 | 3.2 | 0.00 | 0.00 | 0.00 | 36 | 1023.0 |
| 20260906100503 | 31 | 109 | 1.6 | 9.7 | 0.00 | 0.00 | 0.00 | 37 | 1023.0 |
| 20260906100003 | 31 | 122 | 3.2 | 9.7 | 0.00 | 0.00 | 0.00 | 38 | 1023.1 |
| 20260906095503 | 31 | 158 | 3.2 | 8.0 | 0.00 | 0.00 | 0.00 | 38 | 1022.9 |
| 20260906095003 | 31 | 152 | 3.2 | 8.0 | 0.00 | 0.00 | 0.00 | 38 | 1023.1 |
| 20260906094503 | 31 | 141 | 1.6 | 8.0 | 0.00 | 0.00 | 0.00 | 39 | 1023.1 |
| 20260906094003 | 32 | 154 | 1.6 | 9.7 | 0.00 | 0.00 | 0.00 | 37 | 1023.2 |
| 20260906093503 | 31 | 167 | 1.6 | 9.7 | 0.00 | 0.00 | 0.00 | 39 | 1023.1 |
| 20260906093003 | 31 | 198 | 1.6 | 6.4 | 0.00 | 0.00 | 0.00 | 40 | 1023.2 |
| 20260906092501 | 31 | 224 | 1.6 | 6.4 | 0.00 | 0.00 | 0.00 | 41 | 1023.2 |
| 20260906092001 | 30 | 207 | 3.2 | 8.0 | 0.00 | 0.00 | 0.00 | 42 | 1023.1 |
| 20260906091501 | 30 | 205 | 4.8 | 12.9 | 0.00 | 0.00 | 0.00 | 42 | 1023.2 |
| 20260906091001 | 30 | 203 | 6.4 | 12.9 | 0.00 | 0.00 | 0.00 | 42 | 1023.2 |
| 20260906090501 | 30 | 213 | 8.0 | 14.5 | 0.00 | 0.00 | 0.00 | 41 | 1023.3 |
| 20260906090001 | 30 | 203 | 8.0 | 14.5 | 0.00 | 0.00 | 0.00 | 41 | 1023.2 |
| 20260906085501 | 30 | 170 | 8.0 | 14.5 | 0.00 | 0.00 | 0.00 | 41 | 1023.2 |
| 20260906085001 | 30 | 180 | 8.0 | 16.1 | 0.00 | 0.00 | 0.00 | 40 | 1023.3 |
| 20260906084501 | 30 | 191 | 8.0 | 16.1 | 0.00 | 0.00 | 0.00 | 41 | 1023.1 |
| 20260906084001 | 29 | 193 | 9.7 | 16.1 | 0.00 | 0.00 | 0.00 | 42 | 1023.2 |
| 20260906083501 | 29 | 188 | 8.0 | 16.1 | 0.00 | 0.00 | 0.00 | 43 | 1023.1 |
| 20260906083002 | 28 | 195 | 6.4 | 12.9 | 0.00 | 0.00 | 0.00 | 46 | 1023.1 |
| 20260906082501 | 28 | 194 | 8.0 | 14.5 | 0.00 | 0.00 | 0.00 | 47 | 1023.1 |
| 20260906082001 | 28 | 180 | 8.0 | 14.5 | 0.00 | 0.00 | 0.00 | 47 | 1023.2 |
| 20260906081501 | 28 | 180 | 9.7 | 14.5 | 0.00 | 0.00 | 0.00 | 48 | 1023.1 |
| 20260906081001 | 28 | 187 | 9.7 | 17.7 | 0.00 | 0.00 | 0.00 | 50 | 1023.1 |
| 20260906080502 | 28 | 187 | 9.7 | 17.7 | 0.00 | 0.00 | 0.00 | 50 | 1023.0 |
| 20260906080002 | 27 | 187 | 9.7 | 16.1 | 0.00 | 0.00 | 0.00 | 52 | 1022.9 |
| 20260906075502 | 27 | 190 | 9.7 | 16.1 | 0.00 | 0.00 | 0.00 | 50 | 1022.9 |
| 20260906075001 | 27 | 192 | 11.3 | 16.1 | 0.00 | 0.00 | 0.00 | 52 | 1023.0 |
| 20260906074501 | 27 | 197 | 9.7 | 16.1 | 0.00 | 0.00 | 0.00 | 51 | 1022.8 |
| 20260906074002 | 27 | 190 | 9.7 | 16.1 | 0.00 | 0.00 | 0.00 | 56 | 1022.8 |
| 20260906073501 | 27 | 200 | 11.3 | 17.7 | 0.00 | 0.00 | 0.00 | 58 | 1022.8 |
| 20260906073002 | 27 | 215 | 11.3 | 17.7 | 0.00 | 0.00 | 0.00 | 57 | 1022.7 |
| 20260906072502 | 27 | 196 | 9.7 | 16.1 | 0.00 | 0.00 | 0.00 | 55 | 1022.7 |
| 20260906072001 | 26 | 172 | 8.0 | 14.5 | 0.00 | 0.00 | 0.00 | 59 | 1022.7 |
| 20260906071501 | 26 | 190 | 8.0 | 14.5 | 0.00 | 0.00 | 0.00 | 57 | 1022.7 |
| 20260906071002 | 26 | 198 | 9.7 | 14.5 | 0.00 | 0.00 | 0.00 | 60 | 1022.7 |
| 20260906070501 | 26 | 189 | 8.0 | 14.5 | 0.00 | 0.00 | 0.00 | 61 | 1022.7 |
| 20260906070002 | 26 | 194 | 9.7 | 16.1 | 0.00 | 0.00 | 0.00 | 64 | 1022.7 |
| 20260906065501 | 26 | 205 | 8.0 | 16.1 | 0.00 | 0.00 | 0.00 | 63 | 1022.7 |
| 20260906065002 | 26 | 215 | 8.0 | 12.9 | 0.00 | 0.00 | 0.00 | 63 | 1022.6 |
| 20260906064502 | 26 | 211 | 8.0 | 12.9 | 0.00 | 0.00 | 0.00 | 66 | 1022.5 |
| 20260906064002 | 25 | 204 | 8.0 | 14.5 | 0.00 | 0.00 | 0.00 | 67 | 1022.5 |
| 20260906063501 | 25 | 209 | 9.7 | 14.5 | 0.00 | 0.00 | 0.00 | 67 | 1022.4 |
| 20260906063002 | 25 | 204 | 8.0 | 14.5 | 0.00 | 0.00 | 0.00 | 67 | 1022.5 |
| 20260906062501 | 25 | 209 | 9.7 | 14.5 | 0.00 | 0.00 | 0.00 | 68 | 1022.4 |
| 20260906062002 | 25 | 213 | 9.7 | 14.5 | 0.00 | 0.00 | 0.00 | 69 | 1022.3 |
| 20260906061501 | 25 | 208 | 9.7 | 14.5 | 0.00 | 0.00 | 0.00 | 69 | 1022.4 |
| 20260906061001 | 25 | 207 | 9.7 | 14.5 | 0.00 | 0.00 | 0.00 | 69 | 1022.4 |
| 20260906060501 | 24 | 209 | 9.7 | 14.5 | 0.00 | 0.00 | 0.00 | 69 | 1022.4 |
| 20260906060003 | 24 | 212 | 11.3 | 14.5 | 0.00 | 0.00 | 0.00 | 69 | 1022.3 |
| 20260906055502 | 24 | 215 | 11.3 | 16.1 | 0.00 | 0.00 | 0.00 | 68 | 1022.4 |
| 20260906055002 | 24 | 214 | 11.3 | 16.1 | 0.00 | 0.00 | 0.00 | 66 | 1022.3 |
| 20260906054502 | 23 | 214 | 9.7 | 14.5 | 0.00 | 0.00 | 0.00 | 63 | 1022.4 |
| 20260906054002 | 23 | 215 | 11.3 | 17.7 | 0.00 | 0.00 | 0.00 | 60 | 1022.3 |
| 20260906053501 | 23 | 213 | 11.3 | 17.7 | 0.00 | 0.00 | 0.00 | 57 | 1022.3 |
| 20260906053002 | 23 | 211 | 11.3 | 17.7 | 0.00 | 0.00 | 0.00 | 54 | 1022.4 |
| 20260906052502 | 23 | 207 | 11.3 | 17.7 | 0.00 | 0.00 | 0.00 | 50 | 1022.3 |
| 20260906052001 | 23 | 203 | 11.3 | 17.7 | 0.00 | 0.00 | 0.00 | 49 | 1022.3 |
| 20260906051502 | 23 | 203 | 0.0 | 14.5 | 0.00 | 0.00 | 0.00 | 50 | 1022.1 |
| 20260906051001 | 22 | 219 | 0.0 | 8.0 | 0.00 | 0.00 | 0.00 | 1 | 1022.2 |
| 20260906050502 | 22 | 219 | 0.0 | 8.0 | 0.00 | 0.00 | 0.00 | 1 | 1022.2 |
| 20260906050002 | 22 | 219 | 0.0 | 8.0 | 0.00 | 0.00 | 0.00 | 1 | 1022.1 |
| 20260906045502 | 22 | 219 | 0.0 | 8.0 | 0.00 | 0.00 | 0.00 | 1 | 1022.2 |
| 20260906045002 | 22 | 219 | 0.0 | 8.0 | 0.00 | 0.00 | 0.00 | 1 | 1022.2 |
| 20260906044502 | 22 | 219 | 0.0 | 8.0 | 0.00 | 0.00 | 0.00 | 1 | 1022.2 |
| 20260906044002 | 22 | 219 | 0.0 | 8.0 | 0.00 | 0.00 | 0.00 | 1 | 1022.3 |
| 20260906043501 | 22 | 219 | 0.0 | 8.0 | 0.00 | 0.00 | 0.00 | 1 | 1022.2 |
| 20260906043002 | 22 | 219 | 0.0 | 8.0 | 0.00 | 0.00 | 0.00 | 1 | 1022.1 |
| 20260906042502 | 22 | 219 | 0.0 | 8.0 | 0.00 | 0.00 | 0.00 | 1 | 1022.1 |
| 20260906042002 | 22 | 219 | 0.0 | 8.0 | 0.00 | 0.00 | 0.00 | 1 | 1022.1 |
| 20260906041502 | 22 | 219 | 0.0 | 8.0 | 0.00 | 0.00 | 0.00 | 1 | 1022.1 |
| 20260906041001 | 22 | 219 | 0.0 | 8.0 | 0.00 | 0.00 | 0.00 | 1 | 1022.0 |
| 20260906040502 | 22 | 219 | 0.0 | 8.0 | 0.00 | 0.00 | 0.00 | 1 | 1022.0 |
| 20260906040002 | 22 | 219 | 0.0 | 8.0 | 0.00 | 0.00 | 0.00 | 1 | 1022.0 |
| 20260906035501 | 22 | 219 | 0.0 | 8.0 | 0.00 | 0.00 | 0.00 | 1 | 1022.0 |
| 20260906035001 | 22 | 219 | 0.0 | 8.0 | 0.00 | 0.00 | 0.00 | 1 | 1021.9 |
| 20260906034502 | 22 | 219 | 0.0 | 8.0 | 0.00 | 0.00 | 0.00 | 1 | 1021.9 |
| 20260906034002 | 22 | 219 | 0.0 | 8.0 | 0.00 | 0.00 | 0.00 | 1 | 1021.9 |
| 20260906033502 | 22 | 215 | 0.0 | 12.9 | 0.00 | 0.00 | 0.00 | 1 | 1021.9 |
| 20260906033002 | 22 | 213 | 9.7 | 14.5 | 0.00 | 0.00 | 0.00 | 1 | 1021.9 |
| 20260906032502 | 23 | 213 | 11.3 | 14.5 | 0.00 | 0.00 | 0.00 | 1 | 1021.8 |
| 20260906032002 | 23 | 210 | 11.3 | 17.7 | 0.00 | 0.00 | 0.00 | 1 | 1021.8 |
| 20260906031502 | 23 | 206 | 11.3 | 17.7 | 0.00 | 0.00 | 0.00 | 3 | 1021.8 |
| 20260906031002 | 23 | 205 | 11.3 | 17.7 | 0.00 | 0.00 | 0.00 | 3 | 1021.8 |
| 20260906030502 | 23 | 202 | 9.7 | 16.1 | 0.00 | 0.00 | 0.00 | 11 | 1021.9 |
| 20260906030002 | 23 | 202 | 9.7 | 16.1 | 0.00 | 0.00 | 0.00 | 10 | 1021.9 |
| 20260906025502 | 23 | 208 | 9.7 | 14.5 | 0.00 | 0.00 | 0.00 | 5 | 1021.8 |
| 20260906025002 | 23 | 213 | 9.7 | 14.5 | 0.00 | 0.00 | 0.00 | 12 | 1021.8 |
| 20260906024502 | 23 | 213 | 8.0 | 12.9 | 0.00 | 0.00 | 0.00 | 16 | 1021.8 |
| 20260906024002 | 23 | 209 | 8.0 | 12.9 | 0.00 | 0.00 | 0.00 | 17 | 1021.8 |
| 20260906023502 | 23 | 208 | 8.0 | 12.9 | 0.00 | 0.00 | 0.00 | 26 | 1021.9 |
| 20260906023002 | 23 | 211 | 8.0 | 12.9 | 0.00 | 0.00 | 0.00 | 29 | 1021.9 |
| 20260906022502 | 23 | 211 | 8.0 | 14.5 | 0.00 | 0.00 | 0.00 | 26 | 1021.9 |
| 20260906022002 | 23 | 210 | 9.7 | 17.7 | 0.00 | 0.00 | 0.00 | 27 | 1021.9 |
| 20260906021502 | 23 | 215 | 9.7 | 17.7 | 0.00 | 0.00 | 0.00 | 26 | 1021.9 |
| 20260906021002 | 23 | 217 | 8.0 | 14.5 | 0.00 | 0.00 | 0.00 | 31 | 1021.9 |
| 20260906020502 | 23 | 216 | 9.7 | 16.1 | 0.00 | 0.00 | 0.00 | 32 | 1022.0 |
| 20260906020002 | 23 | 212 | 11.3 | 16.1 | 0.00 | 0.00 | 0.00 | 35 | 1022.0 |
| 20260906015502 | 23 | 209 | 11.3 | 16.1 | 0.00 | 0.00 | 0.00 | 35 | 1022.0 |
| 20260906015002 | 23 | 212 | 11.3 | 17.7 | 0.00 | 0.00 | 0.00 | 35 | 1021.9 |
| 20260906014502 | 23 | 216 | 9.7 | 17.7 | 0.00 | 0.00 | 0.00 | 37 | 1022.0 |
| 20260906014002 | 23 | 217 | 9.7 | 16.1 | 0.00 | 0.00 | 0.00 | 37 | 1021.9 |
| 20260906013502 | 23 | 215 | 9.7 | 16.1 | 0.00 | 0.00 | 0.00 | 41 | 1021.9 |
| 20260906013002 | 23 | 227 | 9.7 | 14.5 | 0.00 | 0.00 | 0.00 | 41 | 1022.0 |
| 20260906012502 | 23 | 222 | 9.7 | 17.7 | 0.00 | 0.00 | 0.00 | 51 | 1022.0 |
| 20260906012002 | 23 | 209 | 11.3 | 17.7 | 0.00 | 0.00 | 0.00 | 47 | 1022.0 |
| 20260906011502 | 23 | 216 | 9.7 | 14.5 | 0.00 | 0.00 | 0.00 | 46 | 1022.0 |
| 20260906011002 | 23 | 223 | 9.7 | 14.5 | 0.00 | 0.00 | 0.00 | 46 | 1022.0 |
| 20260906010502 | 23 | 221 | 9.7 | 14.5 | 0.00 | 0.00 | 0.00 | 45 | 1022.0 |
| 20260906010002 | 23 | 217 | 9.7 | 14.5 | 0.00 | 0.00 | 0.00 | 50 | 1022.1 |
| 20260906005502 | 23 | 214 | 9.7 | 14.5 | 0.00 | 0.00 | 0.00 | 50 | 1022.1 |
| 20260906005002 | 23 | 216 | 11.3 | 17.7 | 0.00 | 0.00 | 0.00 | 47 | 1022.1 |
| 20260906004502 | 23 | 213 | 12.9 | 17.7 | 0.00 | 0.00 | 0.00 | 51 | 1022.1 |
| 20260906004002 | 23 | 210 | 11.3 | 16.1 | 0.00 | 0.00 | 0.00 | 55 | 1022.3 |
| 20260906003502 | 23 | 213 | 11.3 | 16.1 | 0.00 | 0.00 | 0.00 | 54 | 1022.2 |
| 20260906003002 | 23 | 215 | 9.7 | 16.1 | 0.00 | 0.00 | 0.00 | 56 | 1022.2 |
| 20260906002502 | 23 | 217 | 8.0 | 12.9 | 0.00 | 0.00 | 0.00 | 57 | 1022.1 |
| 20260906002002 | 23 | 225 | 6.4 | 12.9 | 0.00 | 0.00 | 0.00 | 58 | 1022.1 |
| 20260906001502 | 23 | 225 | 6.4 | 14.5 | 0.00 | 0.00 | 0.00 | 59 | 1022.2 |
| 20260906001002 | 23 | 218 | 8.0 | 14.5 | 0.00 | 0.00 | 0.00 | 59 | 1022.1 |
| 20260906000502 | 23 | 216 | 8.0 | 12.9 | 0.00 | 0.00 | 0.00 | 58 | 1022.1 |
| 20260906000003 | 23 | 216 | 6.4 | 11.3 | 0.00 | 0.00 | 0.00 | 59 | 1022.2 |
| 20260905235502 | 23 | 214 | 4.8 | 11.3 | 0.00 | 0.00 | 0.00 | 58 | 1022.2 |
| 20260905235003 | 23 | 221 | 4.8 | 12.9 | 0.00 | 0.00 | 0.00 | 52 | 1022.2 |
| 20260905234502 | 23 | 220 | 8.0 | 16.1 | 0.00 | 0.00 | 0.00 | 48 | 1022.3 |
| 20260905234002 | 23 | 215 | 9.7 | 17.7 | 0.00 | 0.00 | 0.00 | 47 | 1022.4 |
| 20260905233502 | 23 | 216 | 12.9 | 20.9 | 0.00 | 0.00 | 0.00 | 38 | 1022.3 |
| 20260905233002 | 23 | 219 | 14.5 | 20.9 | 0.00 | 0.00 | 0.00 | 39 | 1022.4 |
| 20260905232502 | 23 | 217 | 14.5 | 20.9 | 0.00 | 0.00 | 0.00 | 45 | 1022.2 |
| 20260905232002 | 23 | 216 | 16.1 | 20.9 | 0.00 | 0.00 | 0.00 | 51 | 1022.3 |
| 20260905231502 | 23 | 217 | 16.1 | 20.9 | 0.00 | 0.00 | 0.00 | 55 | 1022.3 |
| 20260905231002 | 23 | 217 | 16.1 | 22.5 | 0.00 | 0.00 | 0.00 | 54 | 1022.4 |
| 20260905230502 | 24 | 218 | 16.1 | 22.5 | 0.00 | 0.00 | 0.00 | 57 | 1022.4 |
| 20260905230002 | 24 | 219 | 14.5 | 20.9 | 0.00 | 0.00 | 0.00 | 58 | 1022.4 |
| 20260905225502 | 24 | 218 | 16.1 | 20.9 | 0.00 | 0.00 | 0.00 | 59 | 1022.4 |
| 20260905225002 | 24 | 216 | 16.1 | 20.9 | 0.00 | 0.00 | 0.00 | 60 | 1022.4 |
| 20260905224502 | 24 | 214 | 16.1 | 22.5 | 0.00 | 0.00 | 0.00 | 61 | 1022.4 |
| 20260905224002 | 24 | 214 | 14.5 | 22.5 | 0.00 | 0.00 | 0.00 | 61 | 1022.3 |
| 20260905223502 | 24 | 214 | 14.5 | 20.9 | 0.00 | 0.00 | 0.00 | 63 | 1022.4 |
| 20260905223002 | 24 | 213 | 14.5 | 20.9 | 0.00 | 0.00 | 0.00 | 61 | 1022.4 |
| 20260905222502 | 24 | 212 | 14.5 | 20.9 | 0.00 | 0.00 | 0.00 | 61 | 1022.5 |
| 20260905222002 | 24 | 210 | 14.5 | 20.9 | 0.00 | 0.00 | 0.00 | 64 | 1022.4 |
| 20260905221502 | 24 | 206 | 16.1 | 22.5 | 0.00 | 0.00 | 0.00 | 64 | 1022.5 |
| 20260905221002 | 24 | 206 | 16.1 | 22.5 | 0.00 | 0.00 | 0.00 | 65 | 1022.4 |
| 20260905220502 | 24 | 207 | 14.5 | 22.5 | 0.00 | 0.00 | 0.00 | 67 | 1022.4 |
| 20260905220006 | 24 | 208 | 14.5 | 20.9 | 0.00 | 0.00 | 0.00 | 69 | 1022.4 |
| 20260905215502 | 24 | 206 | 14.5 | 20.9 | 0.00 | 0.00 | 0.00 | 69 | 1022.2 |
| 20260905215002 | 24 | 201 | 12.9 | 19.3 | 0.00 | 0.00 | 0.00 | 69 | 1022.3 |
| 20260905214502 | 25 | 205 | 11.3 | 17.7 | 0.00 | 0.00 | 0.00 | 69 | 1022.2 |
| 20260905214002 | 25 | 209 | 9.7 | 14.5 | 0.00 | 0.00 | 0.00 | 69 | 1022.2 |
| 20260905213502 | 25 | 208 | 9.7 | 14.5 | 0.00 | 0.00 | 0.00 | 69 | 1022.3 |
| 20260905213002 | 25 | 207 | 9.7 | 16.1 | 0.00 | 0.00 | 0.00 | 69 | 1022.2 |
| 20260905212502 | 25 | 210 | 11.3 | 16.1 | 0.00 | 0.00 | 0.00 | 69 | 1022.3 |
| 20260905212002 | 25 | 206 | 12.9 | 19.3 | 0.00 | 0.00 | 0.00 | 69 | 1022.4 |
| 20260905211502 | 25 | 204 | 12.9 | 19.3 | 0.00 | 0.00 | 0.00 | 69 | 1022.4 |
| 20260905211002 | 25 | 206 | 12.9 | 17.7 | 0.00 | 0.00 | 0.00 | 69 | 1022.4 |
| 20260905210502 | 25 | 206 | 12.9 | 19.3 | 0.00 | 0.00 | 0.00 | 68 | 1022.4 |
| 20260905210002 | 25 | 206 | 12.9 | 19.3 | 0.00 | 0.00 | 0.00 | 68 | 1022.4 |
| 20260905205502 | 25 | 209 | 12.9 | 20.9 | 0.00 | 0.00 | 0.00 | 68 | 1022.4 |
| 20260905205002 | 25 | 212 | 14.5 | 20.9 | 0.00 | 0.00 | 0.00 | 68 | 1022.4 |
| 20260905204502 | 25 | 213 | 14.5 | 19.3 | 0.00 | 0.00 | 0.00 | 68 | 1022.5 |
| 20260905204002 | 25 | 215 | 14.5 | 19.3 | 0.00 | 0.00 | 0.00 | 68 | 1022.5 |
| 20260905203502 | 25 | 216 | 12.9 | 19.3 | 0.00 | 0.00 | 0.00 | 68 | 1022.4 |
| 20260905203003 | 25 | 212 | 14.5 | 19.3 | 0.00 | 0.00 | 0.00 | 68 | 1022.5 |
| 20260905202502 | 25 | 201 | 12.9 | 19.3 | 0.00 | 0.00 | 0.00 | 69 | 1022.6 |
| 20260905202002 | 25 | 202 | 12.9 | 19.3 | 0.00 | 0.00 | 0.00 | 69 | 1022.6 |
| 20260905201502 | 25 | 210 | 12.9 | 19.3 | 0.00 | 0.00 | 0.00 | 69 | 1022.5 |
| 20260905201002 | 25 | 214 | 12.9 | 19.3 | 0.00 | 0.00 | 0.00 | 69 | 1022.6 |
| 20260905200502 | 25 | 215 | 12.9 | 19.3 | 0.00 | 0.00 | 0.00 | 69 | 1022.6 |
| 20260905200002 | 25 | 215 | 12.9 | 17.7 | 0.00 | 0.00 | 0.00 | 69 | 1022.5 |
| 20260905195502 | 25 | 214 | 12.9 | 17.7 | 0.00 | 0.00 | 0.00 | 69 | 1022.6 |
| 20260905195002 | 25 | 208 | 12.9 | 17.7 | 0.00 | 0.00 | 0.00 | 68 | 1022.7 |
| 20260905194502 | 25 | 209 | 12.9 | 17.7 | 0.00 | 0.00 | 0.00 | 68 | 1022.6 |
| 20260905194002 | 25 | 211 | 12.9 | 17.7 | 0.00 | 0.00 | 0.00 | 68 | 1022.6 |
| 20260905193502 | 25 | 210 | 11.3 | 17.7 | 0.00 | 0.00 | 0.00 | 68 | 1022.6 |
| 20260905193002 | 25 | 208 | 12.9 | 17.7 | 0.00 | 0.00 | 0.00 | 69 | 1022.7 |
| 20260905192502 | 25 | 210 | 14.5 | 19.3 | 0.00 | 0.00 | 0.00 | 69 | 1022.7 |
| 20260905192002 | 25 | 209 | 12.9 | 19.3 | 0.00 | 0.00 | 0.00 | 69 | 1022.6 |
| 20260905191502 | 25 | 206 | 12.9 | 19.3 | 0.00 | 0.00 | 0.00 | 68 | 1022.6 |
| 20260905191002 | 25 | 206 | 12.9 | 19.3 | 0.00 | 0.00 | 0.00 | 69 | 1022.6 |
| 20260905190502 | 25 | 209 | 14.5 | 20.9 | 0.00 | 0.00 | 0.00 | 69 | 1022.5 |
| 20260905190004 | 25 | 208 | 14.5 | 20.9 | 0.00 | 0.00 | 0.00 | 69 | 1022.5 |
| 20260905185502 | 25 | 200 | 14.5 | 20.9 | 0.00 | 0.00 | 0.00 | 68 | 1022.3 |
| 20260905185002 | 26 | 200 | 14.5 | 22.5 | 0.00 | 0.00 | 0.00 | 67 | 1022.3 |
| 20260905184502 | 26 | 197 | 14.5 | 22.5 | 0.00 | 0.00 | 0.00 | 65 | 1022.2 |
| 20260905184002 | 26 | 195 | 14.5 | 22.5 | 0.00 | 0.00 | 0.00 | 64 | 1022.3 |
| 20260905183503 | 26 | 200 | 16.1 | 25.7 | 0.00 | 0.00 | 0.00 | 63 | 1022.1 |
| 20260905183002 | 26 | 198 | 16.1 | 25.7 | 0.00 | 0.00 | 0.00 | 63 | 1022.0 |
| 20260905182502 | 26 | 195 | 16.1 | 22.5 | 0.00 | 0.00 | 0.00 | 62 | 1021.9 |
| 20260905182002 | 26 | 197 | 14.5 | 22.5 | 0.00 | 0.00 | 0.00 | 62 | 1022.0 |
| 20260905181502 | 26 | 202 | 16.1 | 25.7 | 0.00 | 0.00 | 0.00 | 62 | 1022.0 |
| 20260905181002 | 26 | 202 | 14.5 | 25.7 | 0.00 | 0.00 | 0.00 | 61 | 1021.9 |
| 20260905180502 | 26 | 202 | 14.5 | 22.5 | 0.00 | 0.00 | 0.00 | 60 | 1021.9 |
| 20260905180002 | 26 | 205 | 14.5 | 20.9 | 0.00 | 0.00 | 0.00 | 59 | 1022.0 |
| 20260905175502 | 27 | 205 | 14.5 | 20.9 | 0.00 | 0.00 | 0.00 | 59 | 1021.9 |
| 20260905175002 | 27 | 202 | 12.9 | 20.9 | 0.00 | 0.00 | 0.00 | 59 | 1021.9 |
| 20260905174503 | 27 | 194 | 12.9 | 19.3 | 0.00 | 0.00 | 0.00 | 60 | 1021.9 |
| 20260905174002 | 27 | 186 | 12.9 | 19.3 | 0.00 | 0.00 | 0.00 | 59 | 1021.8 |
| 20260905173503 | 27 | 188 | 14.5 | 20.9 | 0.00 | 0.00 | 0.00 | 59 | 1021.8 |
| 20260905173002 | 27 | 189 | 12.9 | 20.9 | 0.00 | 0.00 | 0.00 | 57 | 1021.8 |
| 20260905172503 | 27 | 186 | 11.3 | 19.3 | 0.00 | 0.00 | 0.00 | 56 | 1021.8 |
| 20260905172002 | 28 | 185 | 12.9 | 19.3 | 0.00 | 0.00 | 0.00 | 55 | 1021.8 |
| 20260905171502 | 28 | 187 | 12.9 | 19.3 | 0.00 | 0.00 | 0.00 | 54 | 1021.8 |
| 20260905171002 | 28 | 188 | 12.9 | 19.3 | 0.00 | 0.00 | 0.00 | 52 | 1021.7 |
| 20260905170502 | 28 | 184 | 12.9 | 19.3 | 0.00 | 0.00 | 0.00 | 51 | 1021.8 |
| 20260905170004 | 28 | 187 | 14.5 | 20.9 | 0.00 | 0.00 | 0.00 | 51 | 1021.6 |
| 20260905165503 | 28 | 193 | 14.5 | 24.1 | 0.00 | 0.00 | 0.00 | 51 | 1021.9 |
| 20260905165003 | 28 | 191 | 14.5 | 24.1 | 0.00 | 0.00 | 0.00 | 51 | 1021.8 |
| 20260905164503 | 28 | 188 | 14.5 | 22.5 | 0.00 | 0.00 | 0.00 | 51 | 1021.7 |
| 20260905164003 | 29 | 182 | 12.9 | 20.9 | 0.00 | 0.00 | 0.00 | 51 | 1021.6 |
| 20260905163503 | 29 | 182 | 12.9 | 20.9 | 0.00 | 0.00 | 0.00 | 50 | 1021.7 |
| 20260905163003 | 29 | 189 | 14.5 | 20.9 | 0.00 | 0.00 | 0.00 | 49 | 1021.5 |
| 20260905162503 | 29 | 189 | 16.1 | 24.1 | 0.00 | 0.00 | 0.00 | 48 | 1021.6 |
| 20260905162003 | 29 | 190 | 14.5 | 24.1 | 0.00 | 0.00 | 0.00 | 47 | 1021.7 |
| 20260905161502 | 30 | 190 | 14.5 | 22.5 | 0.00 | 0.00 | 0.00 | 47 | 1021.8 |
| 20260905161003 | 30 | 191 | 14.5 | 24.1 | 0.00 | 0.00 | 0.00 | 48 | 1021.7 |
| 20260905160503 | 30 | 184 | 12.9 | 24.1 | 0.00 | 0.00 | 0.00 | 48 | 1021.8 |
| 20260905160003 | 30 | 181 | 14.5 | 22.5 | 0.00 | 0.00 | 0.00 | 49 | 1021.6 |
| 20260905155502 | 30 | 186 | 14.5 | 24.1 | 0.00 | 0.00 | 0.00 | 49 | 1021.6 |
| 20260905155003 | 30 | 184 | 14.5 | 24.1 | 0.00 | 0.00 | 0.00 | 50 | 1021.6 |
| 20260905154502 | 30 | 183 | 11.3 | 24.1 | 0.00 | 0.00 | 0.00 | 50 | 1021.6 |
| 20260905154002 | 30 | 177 | 11.3 | 20.9 | 0.00 | 0.00 | 0.00 | 50 | 1021.6 |
| 20260905153503 | 30 | 177 | 12.9 | 27.4 | 0.00 | 0.00 | 0.00 | 52 | 1021.8 |
| 20260905153003 | 30 | 179 | 12.9 | 27.4 | 0.00 | 0.00 | 0.00 | 52 | 1021.6 |
| 20260905152503 | 30 | 174 | 12.9 | 22.5 | 0.00 | 0.00 | 0.00 | 53 | 1021.6 |
| 20260905152003 | 30 | 176 | 11.3 | 20.9 | 0.00 | 0.00 | 0.00 | 52 | 1021.6 |
| 20260905151503 | 31 | 183 | 11.3 | 25.7 | 0.00 | 0.00 | 0.00 | 52 | 1021.6 |
| 20260905151002 | 31 | 186 | 12.9 | 25.7 | 0.00 | 0.00 | 0.00 | 52 | 1021.7 |
| 20260905150503 | 31 | 181 | 12.9 | 24.1 | 0.00 | 0.00 | 0.00 | 52 | 1021.6 |
| 20260905150003 | 31 | 173 | 8.0 | 22.5 | 0.00 | 0.00 | 0.00 | 50 | 1021.7 |
| 20260905145503 | 31 | 152 | 4.8 | 14.5 | 0.00 | 0.00 | 0.00 | 51 | 1021.6 |
| 20260905145002 | 31 | 134 | 6.4 | 16.1 | 0.00 | 0.00 | 0.00 | 53 | 1021.6 |
| 20260905144502 | 31 | 129 | 8.0 | 16.1 | 0.00 | 0.00 | 0.00 | 53 | 1021.7 |
| 20260905144003 | 31 | 77 | 9.7 | 19.3 | 0.00 | 0.00 | 0.00 | 52 | 1021.6 |
| 20260905143503 | 31 | 49 | 11.3 | 19.3 | 0.00 | 0.00 | 0.00 | 50 | 1021.6 |
| 20260905143003 | 32 | 43 | 8.0 | 17.7 | 0.00 | 0.00 | 0.00 | 48 | 1021.5 |
| 20260905142503 | 32 | 49 | 6.4 | 20.9 | 0.00 | 0.00 | 0.00 | 50 | 1021.5 |
| 20260905142002 | 31 | 45 | 9.7 | 20.9 | 0.00 | 0.00 | 0.00 | 51 | 1021.6 |
| 20260905141503 | 31 | 41 | 11.3 | 20.9 | 0.00 | 0.00 | 0.00 | 49 | 1021.7 |
| 20260905141003 | 31 | 48 | 11.3 | 20.9 | 0.00 | 0.00 | 0.00 | 49 | 1021.6 |
| 20260905140503 | 31 | 37 | 11.3 | 20.9 | 0.00 | 0.00 | 0.00 | 50 | 1021.6 |
| 20260905140003 | 32 | 34 | 11.3 | 20.9 | 0.00 | 0.00 | 0.00 | 48 | 1021.5 |
| 20260905135503 | 31 | 41 | 11.3 | 20.9 | 0.00 | 0.00 | 0.00 | 47 | 1021.5 |
| 20260905135003 | 32 | 41 | 9.7 | 19.3 | 0.00 | 0.00 | 0.00 | 46 | 1021.8 |
| 20260905134502 | 32 | 39 | 9.7 | 19.3 | 0.00 | 0.00 | 0.00 | 44 | 1021.6 |
| 20260905134003 | 32 | 46 | 11.3 | 20.9 | 0.00 | 0.00 | 0.00 | 40 | 1021.7 |
| 20260905133502 | 31 | 58 | 11.3 | 20.9 | 0.00 | 0.00 | 0.00 | 41 | 1021.6 |
| 20260905133003 | 31 | 57 | 11.3 | 20.9 | 0.00 | 0.00 | 0.00 | 39 | 1021.8 |
| 20260905132503 | 32 | 45 | 9.7 | 22.5 | 0.00 | 0.00 | 0.00 | 35 | 1021.8 |
| 20260905132003 | 32 | 42 | 11.3 | 22.5 | 0.00 | 0.00 | 0.00 | 37 | 1021.9 |
| 20260905131503 | 31 | 45 | 11.3 | 19.3 | 0.00 | 0.00 | 0.00 | 37 | 1021.8 |
| 20260905131003 | 31 | 51 | 11.3 | 19.3 | 0.00 | 0.00 | 0.00 | 36 | 1021.9 |
| 20260905130503 | 31 | 65 | 9.7 | 17.7 | 0.00 | 0.00 | 0.00 | 37 | 1021.9 |
| 20260905130003 | 31 | 63 | 9.7 | 17.7 | 0.00 | 0.00 | 0.00 | 35 | 1022.0 |
| 20260905125503 | 32 | 54 | 11.3 | 20.9 | 0.00 | 0.00 | 0.00 | 35 | 1022.1 |
| 20260905125003 | 31 | 44 | 11.3 | 22.5 | 0.00 | 0.00 | 0.00 | 35 | 1022.1 |
| 20260905124503 | 32 | 37 | 11.3 | 22.5 | 0.00 | 0.00 | 0.00 | 35 | 1022.1 |
| 20260905124003 | 32 | 39 | 11.3 | 20.9 | 0.00 | 0.00 | 0.00 | 34 | 1022.3 |
| 20260905123503 | 32 | 44 | 11.3 | 20.9 | 0.00 | 0.00 | 0.00 | 35 | 1022.3 |
| 20260905123003 | 32 | 42 | 9.7 | 20.9 | 0.00 | 0.00 | 0.00 | 36 | 1022.2 |
| 20260905122503 | 32 | 38 | 9.7 | 19.3 | 0.00 | 0.00 | 0.00 | 36 | 1022.1 |
| 20260905122003 | 32 | 41 | 11.3 | 19.3 | 0.00 | 0.00 | 0.00 | 37 | 1022.2 |
| 20260905121503 | 31 | 42 | 11.3 | 19.3 | 0.00 | 0.00 | 0.00 | 37 | 1022.3 |
| 20260905121003 | 31 | 40 | 12.9 | 20.9 | 0.00 | 0.00 | 0.00 | 36 | 1022.3 |
| 20260905120503 | 31 | 44 | 11.3 | 20.9 | 0.00 | 0.00 | 0.00 | 38 | 1022.5 |
| 20260905120003 | 31 | 45 | 12.9 | 19.3 | 0.00 | 0.00 | 0.00 | 37 | 1022.5 |
| 20260905115503 | 31 | 48 | 11.3 | 19.3 | 0.00 | 0.00 | 0.00 | 37 | 1022.6 |
| 20260905115003 | 31 | 46 | 9.7 | 17.7 | 0.00 | 0.00 | 0.00 | 39 | 1022.5 |
| 20260905114503 | 31 | 33 | 9.7 | 19.3 | 0.00 | 0.00 | 0.00 | 38 | 1022.6 |
| 20260905114003 | 32 | 38 | 9.7 | 19.3 | 0.00 | 0.00 | 0.00 | 37 | 1022.5 |